This demonstration page uses our WeatherBlox Daily Observations layout. Learn more.

Left ArrowRight Arrow

44.8408, -93.29828

Hourly Observations for May 10, 2016

Temp ( °F °C ) Dew Point ( °F °C ) Humidity (%) Winds ( mph kmh ) Pressure ( in mb ) Visibility ( mi km ) Precip ( " mm )
12:53 am 00:53 Cloudy 54 12.2 49 9.4 83 83 ESE 12 19 29.84 1010 10 16 0.02 0.51
1:53 am 01:53 Cloudy with Heavy Rain 53 11.7 49 9.4 86 86 ESE 15 24 29.85 1011 4 6 0.04 1.02
2:29 am 02:29 Cloudy with Rain 53 11.7 49 9.4 86 86 ESE 17 28 29.85 1011 4 6 0.14 3.56
2:53 am 02:53 Cloudy with Rain 52 11.1 49 9.4 89 89 E 21 33 29.85 1011 3 5 0.21 5.33
3:01 am 03:01 Cloudy with Rain 51 10.6 47 8.3 86 86 ESE 22 35 29.88 1012 4 6 0.01 0.25
3:53 am 03:53 Cloudy with Light Rain 50 10 47 8.3 89 89 ESE 14 22 29.85 1011 5 8 0.11 2.79
4:28 am 04:28 Cloudy with Rain 50 10 47 8.3 89 89 ESE 13 20 29.88 1012 3 5 0.05 1.27
4:53 am 04:53 Cloudy with Light Rain 49 9.4 46 7.8 90 90 E 15 24 29.85 1011 6 10 0.13 3.30
5:53 am 05:53 Cloudy with Light Rain 49 9.4 45 7.2 86 86 ESE 15 24 29.85 1011 7 11 0.03 0.76
6:53 am 06:53 Cloudy with Light Rain 49 9.4 46 7.8 90 90 E 12 19 29.87 1011 6 10 0.03 0.76
7:53 am 07:53 Cloudy with Light Rain 49 9.4 46 7.8 90 90 E 10 17 29.88 1012 7 11 0.01 0.25
8:53 am 08:53 Cloudy with Light Rain 49 9.4 46 7.8 90 90 E 13 20 29.89 1012 7 11 0.02 0.51
9:53 am 09:53 Cloudy with Light Rain 50 10 47 8.3 89 89 E 12 19 29.89 1012 10 16 0.01 0.25
10:53 am 10:53 Cloudy 52 11.1 48 8.9 86 86 E 12 19 29.89 1012 10 16 0.00 0.03
11:53 am 11:53 Cloudy 53 11.7 49 9.4 86 86 E 14 22 29.91 1013 10 16 0.00 0.00
12:53 pm 12:53 Cloudy 54 12.2 50 10 87 87 E 12 19 29.92 1013 10 16 0.00 0.00
1:53 pm 13:53 Cloudy 55 12.8 50 10 83 83 ESE 12 19 29.94 1014 10 16 0.00 0.00
2:53 pm 14:53 Cloudy 56 13.3 51 10.6 84 84 E 14 22 29.94 1014 10 16 0.00 0.00
3:28 pm 15:28 Cloudy 57 14 52 11 82 82 SE 13 20 29.94 1014 10 16 0.00 0.00
3:53 pm 15:53 Cloudy 56 13.3 51 10.6 84 84 ESE 13 20 29.96 1014 10 16 0.00 0.00
4:53 pm 16:53 Cloudy 57 14 52 11 82 82 E 13 20 29.94 1014 10 16 0.00 0.00
5:27 pm 17:27 Cloudy 57 13.9 50 10 78 78 E 13 20 29.94 1014 10 16 0.00 0.00
5:42 pm 17:42 Cloudy 57 13.9 50 10 78 78 E 15 24 29.94 1014 10 16 0.00 0.00
5:53 pm 17:53 Cloudy 57 13.9 50 10 78 78 E 15 24 29.96 1015 10 16 0.00 0.00
6:09 pm 18:09 Cloudy 57 13.9 49 9.4 74 74 ESE 16 26 29.94 1014 10 16 0.00 0.00
6:48 pm 18:48 Cloudy 55 13 48 9 77 77 E 13 20 30.00 1016 10 16 0.00 0.00
6:53 pm 18:53 Cloudy 55 12.8 49 9.4 80 80 E 15 24 30.00 1016 10 16 0.00 0.00
7:53 pm 19:53 Cloudy 53 11.7 48 8.9 83 83 E 13 20 30.02 1017 10 16 0.00 0.00
8:53 pm 20:53 Cloudy 53 11.7 47 8.3 80 80 E 14 22 30.04 1017 10 16 0.00 0.00
9:17 pm 21:17 Cloudy 52 11.1 47 8.3 83 83 ESE 12 19 30.03 1017 10 16 0.00 0.00
9:37 pm 21:37 Cloudy 52 11.1 47 8.3 83 83 E 14 22 30.03 1017 10 16 0.00 0.00
9:53 pm 21:53 Cloudy 52 11.1 47 8.3 83 83 E 14 22 30.04 1017 10 16 0.00 0.00
10:14 pm 22:14 Cloudy 51 10.6 46 7.8 83 83 E 14 22 30.03 1017 10 16 0.00 0.00
10:53 pm 22:53 Cloudy 51 10.6 46 7.8 83 83 E 10 17 30.05 1018 10 16 0.00 0.00
11:09 pm 23:09 Cloudy 51 10.6 46 7.8 83 83 ESE 12 19 30.06 1018 10 16 0.00 0.00
11:53 pm 23:53 Cloudy 51 10.6 45 7.2 80 80 E 12 19 30.06 1018 10 16 0.00 0.00

Powered by AerisWeather